Regional Weather Roundup
Issued by NWS Little Rock, AR

Home | Current Version | Previous Version | Text Only | Print | Product List | Glossary Off
Versions: 1 2 3 4 5 6 7 8 9 10 11 12 13 14 15 16 17 18 19 20 21 22 23 24 25 26 27 28 29 30 31 32 33 34 35 36 37 38 39 40 41 42 43 44 45 46 47 48 49 50

000
ASUS44 KLZK 190405
RWRLZK

WEATHER ROUNDUP FOR ARKANSAS
NATIONAL WEATHER SERVICE LITTLE ROCK AR
1000 PM CST THU DEC 18 2014

NOTE: "FAIR" INDICATES FEW OR NO CLOUDS BELOW 12,000 FEET WITH NO
SIGNIFICANT WEATHER AND/OR OBSTRUCTIONS TO VISIBILITY.

ARZ001-003-010-029-190500-
NORTHWEST ARKANSAS

CITY           SKY/WX    TMP DP  RH WIND       PRES   REMARKS
FAYETTEVILLE   CLOUDY    40  39  97 CALM      30.21R FOG
FORT SMITH     CLOUDY    42  38  85 NE3       30.23R
HARRISON       CLOUDY    38  37  97 SE3       30.22R FOG
BENTONVILLE    CLOUDY    39  37  93 CALM      30.22R
ROGERS         CLOUDY    39  38  96 NE3       30.21R FOG
SILOAM SPGS    CLOUDY    39  34  81 CALM      30.22S
HIGHFILL       CLOUDY    40  39  97 CALM      30.20R FOG
$$

ARZ004-005-016-190500-
NORTH CENTRAL ARKANSAS

CITY           SKY/WX    TMP DP  RH WIND       PRES   REMARKS
BATESVILLE     CLOUDY    39  37  93 CALM      30.25S
FLIPPIN        CLOUDY    37  34  87 CALM      30.23S
MTN HOME       CLOUDY    37  36  96 SE3       30.23R FOG
$$

ARZ040-041-190500-
WEST CENTRAL ARKANSAS

CITY           SKY/WX    TMP DP  RH WIND       PRES   REMARKS
MENA           CLOUDY    45  43  93 E6        30.20R
MOUNT IDA      CLOUDY    42  41  96 CALM      30.19R FOG
$$

ARZ009-017-025-026-028-190500-
NORTHEAST ARKANSAS

CITY           SKY/WX    TMP DP  RH WIND       PRES   REMARKS
CORNING        CLOUDY    37  36  93 NE6       30.27R
JONESBORO      CLOUDY    40  37  89 NE8       30.25R
NEWPORT        CLOUDY    41  39  92 CALM      30.27R
WALNUT RIDGE   CLOUDY    39  34  81 NE7       30.26R
BLYTHEVILLE    CLOUDY    41  37  86 NE6       30.26R
$$

ARZ022-023-033-042-044-190500-
CENTRAL ARKANSAS

CITY           SKY/WX    TMP DP  RH WIND       PRES   REMARKS
LITTLE ROCK    CLOUDY    43  38  82 N3        30.25S FOG
N LITTLE ROCK  CLOUDY    40  40 100 NE6       30.25S
JACKSONVILLE   CLOUDY    41  40  96 N3        30.24F
SEARCY         CLOUDY    41  39  93 N3        30.27S FOG
HOT SPRINGS    CLOUDY    41  39  93 E6        30.22S
RUSSELLVILLE   CLOUDY    41  38  89 CALM      30.24S
CLINTON        CLOUDY    41  39  93 CALM      30.26S FOG
$$

ARZ036-190500-
EAST ARKANSAS

CITY           SKY/WX    TMP DP  RH WIND       PRES   REMARKS
WEST MEMPHIS   CLOUDY    43  40  89 NE3       30.24S
$$

ARZ050-053-066-070-073-190500-
SOUTHWEST ARKANSAS

CITY           SKY/WX    TMP DP  RH WIND       PRES   REMARKS
ARKADELPHIA    CLOUDY    43  43 100 NE5       30.24R
CAMDEN         CLOUDY    45  41  87 MISG      30.22R FOG
TEXARKANA      CLOUDY    45  43  93 NE7       30.20R
EL DORADO      CLOUDY    47  45  93 NE7       30.20S
DE QUEEN       CLOUDY    45  43  93 E6        30.19R FOG
$$

ARZ056-057-069-190500-
SOUTHEAST ARKANSAS

CITY           SKY/WX    TMP DP  RH WIND       PRES   REMARKS
PINE BLUFF     CLOUDY    43  40  89 NE5       30.23S
STUTTGART        N/A     43  39  87 NE7       30.24R
MONTICELLO     CLOUDY    46  42  86 NE6       30.22R

$$




USA.gov is the U.S. government's official web portal to all federal, state and local government web resources and services.